Radiation Dose at Monitoring Post of Fukushima Daini Nuclear Power Station
Date,Time,MP-1(microSv/h),MP-2(microSv/h),MP-3(microSv/h),MP-4(microSv/h),MP-5(microSv/h),MP-6(microSv/h),MP-7(microSv/h),Wind Direction,Wind Velocity(m/s),Rain
2016/02/20,00:00,0.464,0.268,0.485,0.437,0.399,0.219,0.193,west-southwest,3.4,No
2016/02/20,00:10,0.461,0.268,0.482,0.436,0.399,0.220,0.193,west,4.8,No
2016/02/20,00:20,0.463,0.267,0.482,0.437,0.399,0.220,0.193,west-southwest,4.4,No
2016/02/20,00:30,0.464,0.266,0.486,0.436,0.400,0.220,0.194,southwest,2.2,No
2016/02/20,00:40,0.462,0.269,0.484,0.436,0.399,0.219,0.193,southwest,3.9,No
2016/02/20,00:50,0.465,0.267,0.485,0.438,0.398,0.220,0.194,southwest,5.1,No
2016/02/20,01:00,0.466,0.267,0.485,0.436,0.400,0.222,0.193,southwest,6.4,No
2016/02/20,01:10,0.462,0.268,0.485,0.436,0.399,0.220,0.193,southwest,5.1,No
2016/02/20,01:20,0.464,0.268,0.485,0.439,0.398,0.221,0.194,south-southwest,4.8,No
2016/02/20,01:30,0.465,0.268,0.486,0.435,0.399,0.220,0.193,south-southwest,4.9,No
2016/02/20,01:40,0.462,0.266,0.484,0.437,0.400,0.220,0.193,south-southwest,4.1,No
2016/02/20,01:50,0.463,0.269,0.485,0.438,0.398,0.220,0.194,south-southwest,5.3,No
2016/02/20,02:00,0.465,0.269,0.483,0.435,0.400,0.220,0.193,south,6.1,No
2016/02/20,02:10,0.463,0.268,0.484,0.437,0.400,0.220,0.194,south,5.7,No
2016/02/20,02:20,0.464,0.268,0.484,0.436,0.398,0.221,0.193,south,5.4,No
2016/02/20,02:30,0.465,0.269,0.483,0.436,0.398,0.221,0.194,south,5.7,No
2016/02/20,02:40,0.462,0.269,0.484,0.437,0.400,0.220,0.194,south,6.4,No
2016/02/20,02:50,0.464,0.268,0.486,0.438,0.398,0.221,0.193,south,5.5,No
2016/02/20,03:00,0.464,0.268,0.483,0.436,0.399,0.219,0.194,south-southeast,5.1,No
2016/02/20,03:10,0.461,0.269,0.485,0.436,0.399,0.220,0.193,south-southeast,3.7,No
2016/02/20,03:20,0.464,0.267,0.484,0.438,0.398,0.220,0.194,south,3.6,No
2016/02/20,03:30,0.466,0.267,0.483,0.436,0.400,0.220,0.193,south,3.7,No
2016/02/20,03:40,0.462,0.269,0.486,0.438,0.400,0.220,0.193,south-southwest,2.0,No
2016/02/20,03:50,0.466,0.267,0.484,0.438,0.399,0.221,0.194,south,0.9,No
2016/02/20,04:00,0.466,0.269,0.483,0.437,0.399,0.219,0.193,east-northeast,1.1,No
2016/02/20,04:10,0.461,0.268,0.486,0.438,0.401,0.221,0.193,south-southwest,3.5,No
2016/02/20,04:20,0.464,0.268,0.484,0.437,0.399,0.222,0.194,south,4.4,No
2016/02/20,04:30,0.464,0.268,0.484,0.437,0.401,0.220,0.194,south,4.8,No
2016/02/20,04:40,0.464,0.268,0.486,0.438,0.399,0.221,0.194,south-southwest,6.1,No
2016/02/20,04:50,0.465,0.269,0.485,0.439,0.402,0.221,0.195,southwest,7.3,No
2016/02/20,05:00,0.465,0.268,0.485,0.438,0.399,0.221,0.194,southwest,5.4,No
2016/02/20,05:10,0.464,0.269,0.488,0.437,0.400,0.222,0.193,south-southwest,4.8,No
2016/02/20,05:20,0.464,0.268,0.486,0.440,0.399,0.221,0.194,south-southwest,4.4,No
2016/02/20,05:30,0.464,0.269,0.485,0.437,0.399,0.221,0.193,south-southwest,3.4,No
2016/02/20,05:40,0.463,0.267,0.487,0.437,0.401,0.221,0.193,south-southwest,3.9,No
2016/02/20,05:50,0.462,0.267,0.485,0.438,0.400,0.222,0.194,south-southwest,6.0,No
2016/02/20,06:00,0.465,0.268,0.483,0.438,0.399,0.220,0.193,south-southwest,5.7,No
2016/02/20,06:10,0.464,0.267,0.487,0.436,0.398,0.222,0.194,south-southwest,5.9,No
2016/02/20,06:20,0.463,0.268,0.485,0.437,0.399,0.221,0.195,south-southwest,4.3,No
2016/02/20,06:30,0.464,0.269,0.485,0.438,0.398,0.220,0.194,south,3.0,No
2016/02/20,06:40,0.464,0.267,0.484,0.436,0.399,0.220,0.195,south,4.2,No
2016/02/20,06:50,0.462,0.267,0.486,0.437,0.400,0.221,0.194,south,4.7,No
2016/02/20,07:00,0.463,0.269,0.485,0.438,0.398,0.220,0.195,south,5.3,No
2016/02/20,07:10,0.466,0.269,0.485,0.437,0.398,0.221,0.194,south,5.1,No
2016/02/20,07:20,0.463,0.268,0.487,0.438,0.399,0.222,0.193,south,4.7,No
2016/02/20,07:30,0.465,0.269,0.483,0.440,0.399,0.220,0.194,south,4.5,No
2016/02/20,07:40,0.465,0.269,0.486,0.438,0.400,0.221,0.194,south,5.1,No
2016/02/20,07:50,0.463,0.268,0.485,0.437,0.400,0.220,0.194,south,4.0,No
2016/02/20,08:00,0.464,0.268,0.481,0.438,0.397,0.221,0.193,south,3.5,No
2016/02/20,08:10,0.464,0.268,0.487,0.435,0.399,0.220,0.193,south,2.8,No
2016/02/20,08:20,0.462,0.267,0.483,0.437,0.400,0.220,0.193,south-southwest,2.7,No
2016/02/20,08:30,0.465,0.269,0.483,0.435,0.399,0.221,0.193,southwest,1.9,No
2016/02/20,08:40,0.462,0.267,0.487,0.436,0.401,0.220,0.192,southwest,1.9,No
2016/02/20,08:50,0.464,0.267,0.482,0.436,0.398,0.221,0.192,southwest,1.2,No
2016/02/20,09:00,0.463,0.268,0.483,0.435,0.402,0.220,0.193,west-southwest,0.7,No
2016/02/20,09:10,0.462,0.267,0.482,0.437,0.399,0.221,0.194,west-southwest,1.8,No
2016/02/20,09:20,0.463,0.268,0.485,0.434,0.399,0.221,0.193,west,1.8,No
2016/02/20,09:30,0.460,0.266,0.485,0.438,0.399,0.220,0.192,west,1.9,No
2016/02/20,09:40,0.465,0.268,0.482,0.436,0.400,0.221,0.193,west-northwest,2.1,No
2016/02/20,09:50,0.462,0.268,0.486,0.436,0.401,0.220,0.194,-,CALM,No
2016/02/20,10:00,0.464,0.267,0.481,0.435,0.398,0.221,0.193,northwest,1.0,No
2016/02/20,10:10,0.462,0.268,0.487,0.435,0.402,0.220,0.192,northwest,1.8,No
2016/02/20,10:20,0.463,0.266,0.484,0.439,0.398,0.219,0.193,west-northwest,1.9,No
2016/02/20,10:30,0.462,0.268,0.484,0.434,0.402,0.220,0.193,north-northwest,1.7,No
2016/02/20,10:40,0.464,0.268,0.483,0.437,0.400,0.221,0.193,north-northwest,1.3,No
2016/02/20,10:50,0.463,0.268,0.483,0.433,0.401,0.220,0.193,north,1.6,No
2016/02/20,11:00,0.462,0.267,0.484,0.437,0.398,0.219,0.192,west,1.2,No
2016/02/20,11:10,0.465,0.268,0.484,0.435,0.400,0.220,0.193,west-southwest,0.9,No
2016/02/20,11:20,0.463,0.269,0.485,0.439,0.400,0.219,0.192,east-northeast,0.8,No
2016/02/20,11:30,0.463,0.266,0.483,0.434,0.402,0.220,0.193,north-northeast,1.7,No
2016/02/20,11:40,0.461,0.269,0.483,0.437,0.399,0.220,0.192,north-northeast,1.7,No
2016/02/20,11:50,0.464,0.266,0.481,0.435,0.400,0.221,0.193,north-northeast,2.9,No
2016/02/20,12:00,0.461,0.267,0.486,0.438,0.398,0.221,0.193,north,4.7,No
2016/02/20,12:10,0.465,0.268,0.481,0.435,0.400,0.221,0.192,north-northeast,5.4,No
2016/02/20,12:20,0.463,0.269,0.486,0.440,0.403,0.219,0.193,north-northeast,6.2,No
2016/02/20,12:30,0.464,0.268,0.482,0.437,0.400,0.221,0.193,north-northeast,7.7,No
2016/02/20,12:40,0.464,0.268,0.488,0.438,0.403,0.220,0.194,north,4.3,No
2016/02/20,12:50,0.463,0.269,0.482,0.435,0.400,0.220,0.193,north,5.8,No
2016/02/20,13:00,0.465,0.268,0.487,0.436,0.401,0.220,0.192,north-northeast,7.8,Yes
2016/02/20,13:10,0.461,0.270,0.483,0.436,0.399,0.221,0.194,north,6.3,Yes
2016/02/20,13:20,0.464,0.269,0.486,0.438,0.401,0.220,0.193,north,6.3,Yes
2016/02/20,13:30,0.466,0.269,0.486,0.440,0.402,0.221,0.194,north-northeast,8.4,Yes
2016/02/20,13:40,0.466,0.271,0.484,0.438,0.399,0.223,0.196,north,7.6,Yes
2016/02/20,13:50,0.467,0.270,0.487,0.437,0.399,0.223,0.195,southeast,6.0,Yes
2016/02/20,14:00,0.464,0.271,0.482,0.439,0.401,0.223,0.195,north,5.0,Yes
2016/02/20,14:10,0.464,0.270,0.485,0.436,0.400,0.222,0.195,north,6.3,Yes
2016/02/20,14:20,0.466,0.270,0.485,0.438,0.401,0.222,0.194,north,5.3,Yes
2016/02/20,14:30,0.463,0.269,0.480,0.436,0.400,0.222,0.195,north,6.3,Yes
2016/02/20,14:40,0.462,0.270,0.484,0.433,0.396,0.223,0.195,north,4.7,Yes
2016/02/20,14:50,0.465,0.270,0.482,0.433,0.398,0.222,0.195,north,4.2,Yes
2016/02/20,15:00,0.462,0.270,0.480,0.433,0.398,0.223,0.194,north,6.3,Yes
2016/02/20,15:10,0.461,0.270,0.482,0.432,0.397,0.222,0.195,north,6.5,Yes
2016/02/20,15:20,0.462,0.269,0.480,0.434,0.396,0.222,0.193,north,6.9,Yes
2016/02/20,15:30,0.460,0.268,0.477,0.433,0.398,0.221,0.193,north,7.1,Yes
2016/02/20,15:40,0.461,0.267,0.479,0.430,0.396,0.220,0.193,north,8.1,Yes
2016/02/20,15:50,0.463,0.268,0.479,0.432,0.396,0.221,0.192,north,7.7,Yes
2016/02/20,16:00,0.460,0.266,0.477,0.430,0.397,0.220,0.192,north,8.4,Yes
2016/02/20,16:10,0.456,0.267,0.479,0.428,0.395,0.220,0.191,north,9.2,Yes
2016/02/20,16:20,0.460,0.268,0.478,0.429,0.395,0.220,0.192,north-northwest,8.3,Yes
2016/02/20,16:30,0.460,0.267,0.474,0.429,0.397,0.221,0.191,north-northwest,8.1,Yes
2016/02/20,16:40,0.458,0.268,0.478,0.429,0.395,0.221,0.192,north-northwest,8.1,Yes
2016/02/20,16:50,0.459,0.269,0.477,0.429,0.395,0.220,0.192,north-northwest,7.9,Yes
2016/02/20,17:00,0.459,0.269,0.475,0.429,0.395,0.220,0.192,north-northwest,8.4,Yes
2016/02/20,17:10,0.457,0.268,0.478,0.429,0.396,0.219,0.191,north-northwest,8.7,Yes
2016/02/20,17:20,0.457,0.267,0.476,0.429,0.395,0.220,0.191,north-northwest,8.6,Yes
2016/02/20,17:30,0.459,0.266,0.475,0.427,0.394,0.220,0.191,north-northwest,8.1,Yes
2016/02/20,17:40,0.455,0.267,0.475,0.426,0.396,0.222,0.191,north-northwest,7.7,Yes
2016/02/20,17:50,0.456,0.265,0.475,0.424,0.394,0.218,0.190,north-northwest,8.4,Yes
2016/02/20,18:00,0.455,0.266,0.473,0.427,0.394,0.218,0.191,north-northwest,8.5,Yes
2016/02/20,18:10,0.452,0.266,0.473,0.425,0.394,0.218,0.190,north-northwest,8.6,Yes
2016/02/20,18:20,0.454,0.265,0.472,0.424,0.395,0.218,0.189,north-northwest,8.2,Yes
2016/02/20,18:30,0.456,0.265,0.471,0.426,0.393,0.218,0.189,north-northwest,7.5,Yes
2016/02/20,18:40,0.452,0.265,0.471,0.423,0.393,0.217,0.189,north-northwest,7.4,Yes
2016/02/20,18:50,0.453,0.265,0.472,0.422,0.392,0.218,0.188,north-northwest,7.1,Yes
2016/02/20,19:00,0.454,0.265,0.469,0.423,0.395,0.217,0.189,north-northwest,7.1,Yes
2016/02/20,19:10,0.450,0.266,0.467,0.420,0.391,0.217,0.189,north-northwest,7.1,Yes
2016/02/20,19:20,0.452,0.265,0.469,0.421,0.393,0.216,0.190,north-northwest,7.0,Yes
2016/02/20,19:30,0.453,0.265,0.467,0.423,0.393,0.216,0.188,north-northwest,7.1,Yes
2016/02/20,19:40,0.451,0.264,0.467,0.420,0.392,0.216,0.189,north-northwest,7.4,Yes
2016/02/20,19:50,0.451,0.265,0.468,0.418,0.391,0.217,0.188,north-northwest,7.6,Yes
2016/02/20,20:00,0.451,0.265,0.466,0.421,0.393,0.217,0.189,north-northwest,6.6,Yes
2016/02/20,20:10,0.451,0.264,0.465,0.419,0.393,0.217,0.188,north-northwest,6.9,Yes
2016/02/20,20:20,0.449,0.264,0.467,0.419,0.392,0.217,0.188,north-northwest,6.2,Yes
2016/02/20,20:30,0.453,0.265,0.465,0.419,0.393,0.216,0.187,north-northwest,7.1,Yes
2016/02/20,20:40,0.448,0.264,0.464,0.419,0.393,0.216,0.189,north-northwest,8.1,Yes
2016/02/20,20:50,0.447,0.264,0.463,0.413,0.390,0.215,0.187,north-northwest,8.4,Yes
2016/02/20,21:00,0.448,0.264,0.460,0.414,0.392,0.216,0.187,north-northwest,8.3,Yes
2016/02/20,21:10,0.446,0.263,0.460,0.412,0.392,0.216,0.188,northwest,7.3,Yes
2016/02/20,21:20,0.445,0.264,0.465,0.413,0.390,0.217,0.188,north-northwest,7.5,Yes
2016/02/20,21:30,0.447,0.264,0.464,0.415,0.392,0.216,0.188,-,CALM,Yes
2016/02/20,21:40,0.447,0.264,0.460,0.412,0.393,0.215,0.188,-,CALM,Yes
2016/02/20,21:50,0.445,0.265,0.464,0.413,0.392,0.215,0.188,-,CALM,Yes
2016/02/20,22:00,0.445,0.264,0.460,0.415,0.391,0.215,0.188,north,8.4,Yes
2016/02/20,22:10,0.448,0.264,0.460,0.413,0.391,0.214,0.187,north-northwest,7.9,Yes
2016/02/20,22:20,0.444,0.263,0.462,0.413,0.392,0.215,0.188,north-northwest,7.5,Yes
2016/02/20,22:30,0.444,0.265,0.461,0.415,0.391,0.215,0.187,north-northwest,7.6,Yes
2016/02/20,22:40,0.445,0.265,0.462,0.414,0.392,0.214,0.187,north-northwest,7.9,Yes
2016/02/20,22:50,0.443,0.264,0.462,0.412,0.393,0.215,0.188,north-northwest,6.7,Yes
2016/02/20,23:00,0.444,0.264,0.462,0.413,0.393,0.214,0.187,north-northwest,6.0,Yes
2016/02/20,23:10,0.445,0.265,0.462,0.412,0.392,0.215,0.187,north,5.2,Yes
2016/02/20,23:20,0.443,0.263,0.462,0.413,0.393,0.214,0.187,north,4.0,Yes
2016/02/20,23:30,0.444,0.264,0.462,0.416,0.392,0.214,0.186,northeast,2.0,Yes
2016/02/20,23:40,0.442,0.266,0.460,0.413,0.394,0.215,0.188,south-southwest,0.8,Yes
2016/02/20,23:50,0.443,0.264,0.462,0.414,0.394,0.215,0.188,north-northwest,2.0,Yes
